Location: Caltech
(34.1382°N, 118.1253°W)
Time: 20:18:42
(UTC-07:00)

Lacrosse 5 - Visible Passes

Search period start: 23 April 2014 00:00
Search period end: 03 May 2014 00:00
Orbit: 707 x 720 km, 57.0° (Epoch: 19 April)

Date Brightness Start Highest point End Pass type
(mag) Time Alt. Az. Time Alt. Az. Time Alt. Az.
23 Apr 3.7 03:00:36 10° NNW 03:08:05 20° E 03:09:47 10° ESE visible
23 Apr 2.5 04:47:49 30° WSW 04:47:56 30° WSW 04:52:15 10° S visible
23 Apr 4.7 20:51:21 10° WNW 20:54:28 16° NW 20:57:35 10° N visible
24 Apr 4.6 02:06:17 10° N 02:07:26 14° N 02:07:26 14° N visible
24 Apr 4.1 19:54:52 10° W 19:59:09 27° NW 20:03:27 10° NNE visible
25 Apr 4.9 01:12:33 10° N 01:13:19 11° NNE 01:13:19 11° NNE visible
25 Apr 5.0 20:46:48 10° NW 20:47:57 11° NNW 20:49:06 10° NNW visible
27 Apr 4.8 01:04:30 10° N 01:05:05 12° N 01:05:05 12° N visible
28 Apr 4.8 00:10:59 10° N 00:11:40 11° NNE 00:11:40 11° NNE visible
29 Apr 4.8 00:56:56 10° NNW 00:57:22 12° NNW 00:57:22 12° NNW visible
30 Apr 4.6 00:02:45 10° N 00:04:04 14° N 00:04:04 14° N visible
30 Apr 4.6 23:09:37 10° NNE 23:10:32 10° NNE 23:10:49 10° NNE visible
01 May 4.8 00:49:36 10° NNW 00:49:53 11° NNW 00:49:53 11° NNW visible
01 May 4.4 23:55:07 10° NNW 23:56:40 17° N 23:56:40 17° N visible
02 May 4.2 23:00:59 10° N 23:03:30 16° NNE 23:03:30 16° NNE visible
